Change the Weather History Date:

Sunday, October 28, 2012

  Actual Average Record
Temperature  
Mean Temperature 43 °F 54 °F  
Max Temperature 45 °F 66 °F 84 °F (1991)
Min Temperature 41 °F 42 °F 23 °F (1976)
Degree Days  
Heating Degree Days 22 12  
Month to date heating degree days 263 224  
Since 1 July heating degree days 326 271  
Cooling Degree Days 0 0  
Month to date cooling degree days 4 17  
Year to date cooling degree days 1226 1184  
Moisture  
Dew Point 41 °F    
Average Humidity 89    
Maximum Humidity 96    
Minimum Humidity 82    
Precipitation  
Precipitation 0.37 in 0.11 in 1.29 in (2002)
Month to date precipitation 2.43 2.71  
Year to date precipitation 38.85 38.76  
Sea Level Pressure  
Sea Level Pressure 29.97 in    
Wind  
Wind Speed 9 mph (North)    
Max Wind Speed 17 mph    
Max Gust Speed 23 mph    
Visibility 8 miles    
Events Rain    
T = Trace of Precipitation, MM = Missing Value Source: NWS Daily Summary

Daily Weather History Graph

Daily Weather History Graph

Search for Another Location

Airport or City:

Trip Planner

Search our weather history database for the weather conditions in past years. The results will help you decide how hot, cold, wet, or windy it might be!

Date:

Astronomy

Oct. 28, 2012 Rise Set
Actual Time 7:56 AM EDT 6:42 PM EDT
Civil Twilight 7:30 AM EDT 7:09 PM EDT
Nautical Twilight 6:59 AM EDT 7:39 PM EDT
Astronomical Twilight 6:29 AM EDT 8:10 PM EDT
Moon 5:59 PM EDT (10/28) 6:49 AM EDT (10/28)
Length of Visible Light 11h 39m
Length of Day
10h 45m
Waxing Gibbous, 99% of the Moon is Illuminated
Oct 28
Waxing Gibbous
Oct 29
Full
Nov 6
Last Quarter
Nov 13
New
Nov 20
First Quarter

Hourly Weather History & Observations

Time (EDT) Temp. Windchill Dew Point Humidity Pressure Visibility Wind Dir Wind Speed Gust Speed Precip Events Conditions
12:53 AM 45.0 °F 40.1 °F 43.0 °F 93% 30.00 in 4.0 mi NNE 9.2 mph - 0.01 in   Overcast
2:53 AM 45.0 °F 40.1 °F 43.0 °F 93% 29.97 in 6.0 mi NNE 9.2 mph - N/A   Overcast
3:53 AM 45.0 °F 40.1 °F 43.0 °F 93% 29.96 in 7.0 mi NNE 9.2 mph - N/A   Overcast
4:53 AM 45.0 °F 40.6 °F 43.0 °F 93% 29.96 in 10.0 mi NNE 8.1 mph - N/A   Overcast
5:53 AM 45.0 °F 39.7 °F 43.0 °F 93% 29.95 in 4.0 mi NNE 10.4 mph - 0.00 in Rain Light Rain
6:53 AM 45.0 °F 41.2 °F 43.0 °F 93% 29.95 in 10.0 mi North 6.9 mph - 0.00 in   Overcast
7:48 AM 44.6 °F 41.4 °F 42.8 °F 93% 29.95 in 5.0 mi NNW 5.8 mph - 0.04 in Rain Rain
7:53 AM 44.1 °F 40.1 °F 42.1 °F 93% 29.95 in 4.0 mi North 6.9 mph - 0.08 in Rain Heavy Rain
8:00 AM 44.6 °F 39.7 °F 42.8 °F 93% 29.94 in 3.0 mi North 9.2 mph - 0.03 in Rain Heavy Rain
8:27 AM 44.6 °F 40.7 °F 42.8 °F 93% 29.95 in 5.0 mi North 6.9 mph - 0.09 in Rain Light Rain
8:53 AM 44.1 °F 41.5 °F 43.0 °F 96% 29.97 in 8.0 mi NNW 4.6 mph - 0.10 in Rain Light Rain
9:00 AM 44.6 °F 40.2 °F 42.8 °F 93% 29.96 in 9.0 mi NNW 8.1 mph - 0.00 in Rain Light Rain
9:28 AM 44.6 °F 40.2 °F 42.8 °F 93% 29.97 in 10.0 mi North 8.1 mph - 0.00 in Rain Light Rain
9:53 AM 44.1 °F 38.6 °F 42.1 °F 93% 29.97 in 8.0 mi North 10.4 mph - 0.01 in Rain Light Rain
10:37 AM 44.6 °F 40.2 °F 42.8 °F 93% 29.95 in 6.0 mi North 8.1 mph 17.3 mph 0.05 in Rain Light Rain
10:53 AM 44.1 °F 39.0 °F 42.1 °F 93% 29.96 in 8.0 mi North 9.2 mph - 0.05 in Rain Light Rain
11:00 AM 44.6 °F 40.2 °F 42.8 °F 93% 29.96 in 10.0 mi North 8.1 mph - 0.00 in Rain Light Rain
11:53 AM 44.1 °F 40.1 °F 42.1 °F 93% 29.96 in 8.0 mi North 6.9 mph - 0.04 in Rain Light Rain
12:27 PM 44.6 °F 39.7 °F 41.0 °F 87% 29.96 in 9.0 mi North 9.2 mph 18.4 mph 0.03 in Rain Light Rain
1:18 PM 44.6 °F 38.1 °F 41.0 °F 87% 29.95 in 10.0 mi North 13.8 mph 19.6 mph 0.01 in Rain Light Rain
1:53 PM 44.1 °F 39.0 °F 41.0 °F 89% 29.96 in 10.0 mi North 9.2 mph - 0.01 in Rain Light Rain
2:53 PM 43.0 °F 38.8 °F 41.0 °F 93% 29.96 in 10.0 mi North 6.9 mph - 0.01 in Rain Light Rain
3:53 PM 43.0 °F 37.2 °F 39.9 °F 89% 29.96 in 10.0 mi NNW 10.4 mph - 0.01 in Rain Light Rain
4:53 PM 43.0 °F 38.2 °F 39.9 °F 89% 29.97 in 10.0 mi NNW 8.1 mph 19.6 mph 0.01 in Rain Light Rain
5:26 PM 42.8 °F 36.6 °F 39.2 °F 87% 29.97 in 10.0 mi NNW 11.5 mph - 0.00 in   Overcast
5:53 PM 42.1 °F 35.7 °F 39.0 °F 89% 29.99 in 9.0 mi NNW 11.5 mph 17.3 mph 0.00 in Rain Light Rain
6:00 PM 42.8 °F 35.8 °F 39.2 °F 87% 29.98 in 10.0 mi NNW 13.8 mph - 0.00 in   Overcast
6:53 PM 42.1 °F 35.7 °F 39.0 °F 89% 30.00 in 10.0 mi NNW 11.5 mph - 0.00 in   Overcast
7:41 PM 42.8 °F 39.3 °F 39.2 °F 87% 30.00 in 10.0 mi NNW 5.8 mph - N/A   Overcast
7:49 PM 42.8 °F 39.3 °F 39.2 °F 87% 29.99 in 7.0 mi North 5.8 mph - 0.00 in Rain Light Rain
7:53 PM 42.1 °F 39.2 °F 39.9 °F 92% 30.00 in 7.0 mi North 4.6 mph - 0.00 in Rain Light Rain
8:38 PM 42.8 °F 37.0 °F 39.2 °F 87% 30.00 in 10.0 mi NNW 10.4 mph - 0.00 in   Overcast
8:53 PM 42.1 °F 36.6 °F 39.0 °F 89% 30.01 in 10.0 mi NNW 9.2 mph - 0.00 in   Overcast
9:15 PM 42.8 °F 37.5 °F 37.4 °F 81% 30.00 in 10.0 mi NNW 9.2 mph - N/A   Overcast
9:23 PM 42.8 °F 38.0 °F 37.4 °F 81% 29.99 in 10.0 mi NNW 8.1 mph - N/A   Overcast
9:53 PM 43.0 °F 37.7 °F 37.9 °F 82% 30.00 in 10.0 mi NNW 9.2 mph - N/A   Overcast
10:53 PM 42.1 °F 37.1 °F 37.0 °F 82% 30.00 in 10.0 mi North 8.1 mph - N/A   Overcast
11:48 PM 41.0 °F 33.9 °F 37.4 °F 87% 29.99 in 10.0 mi NNW 12.7 mph 18.4 mph 0.00 in Rain Light Rain
11:53 PM 41.0 °F 34.7 °F 37.0 °F 86% 30.00 in 10.0 mi North 10.4 mph 19.6 mph 0.00 in   Overcast